Weather History for Dallas/Ft Worth, TX

Change the Weather History Date:

Friday, June 13, 2014

  Actual Average Record
Temperature  
Mean Temperature 82 °F 81 °F  
Max Temperature 90 °F 91 °F 102 °F (1924)
Min Temperature 73 °F 71 °F 59 °F (1979)
Degree Days  
Heating Degree Days 0 0  
Month to date heating degree days 0 0  
Since 1 June heating degree days 0 0  
Since 1 July heating degree days 2603 2284  
Cooling Degree Days 17 16  
Month to date cooling degree days 215 192  
Year to date cooling degree days 691 614  
Since 1 June cooling degree days 215 192  
Growing Degree Days 32 (Base 50)    
Moisture  
Dew Point 68 °F    
Average Humidity 66    
Maximum Humidity 84    
Minimum Humidity 47    
Precipitation  
Precipitation 0.00 in 0.13 in 1.82 in (1989)
Month to date precipitation 0.96 1.80  
Year to date precipitation 8.29 18.05  
Sea Level Pressure  
Sea Level Pressure 29.94 in    
Wind  
Wind Speed 9 mph (ENE)    
Max Wind Speed 15 mph    
Max Gust Speed 18 mph    
Visibility 10 miles    
Events      
T = Trace of Precipitation, MM = Missing Value Source: NWS Daily Summary

Daily Weather History Graph

Daily Weather History Graph

Search for Another Location

Airport:

Trip Planner

Search our weather history database for the weather conditions in past years. The results will help you decide how hot, cold, wet, or windy it might be!

Date:

Astronomy

Jun. 13, 2014 Rise Set
Actual Time 6:19 AM CDT 8:37 PM CDT
Civil Twilight 5:50 AM CDT 9:05 PM CDT
Nautical Twilight 5:15 AM CDT 9:41 PM CDT
Astronomical Twilight 4:37 AM CDT 10:19 PM CDT
Moon 9:13 PM CDT (6/13) 6:55 AM CDT (6/13)
Length of Visible Light 15h 15m
Length of Day
14h 18m
Full, 100% of the Moon is Illuminated
Jun 13
Full
Jun 19
Last Quarter
Jun 27
New
Jul 5
First Quarter
Jul 12
Full

Hourly Weather History & Observations

Time (CDT) Temp. Heat Index Dew Point Humidity Pressure Visibility Wind Dir Wind Speed Gust Speed Precip Events Conditions
12:53 AM 75.9 °F - 69.1 °F 79% 29.93 in 10.0 mi NNE 9.2 mph - N/A   Mostly Cloudy
1:53 AM 75.9 °F - 69.1 °F 79% 29.92 in 10.0 mi NNE 6.9 mph - N/A   Overcast
2:53 AM 75.9 °F - 69.1 °F 79% 29.94 in 10.0 mi NE 4.6 mph - N/A   Overcast
3:53 AM 77.0 °F - 69.1 °F 76% 29.96 in 10.0 mi Calm Calm - N/A   Overcast
4:53 AM 75.0 °F - 69.1 °F 82% 29.96 in 10.0 mi North 8.1 mph - N/A   Mostly Cloudy
5:53 AM 73.9 °F - 68.0 °F 82% 29.95 in 10.0 mi NNE 6.9 mph - N/A   Mostly Cloudy
6:53 AM 73.0 °F - 68.0 °F 84% 29.96 in 10.0 mi NNE 9.2 mph - N/A   Partly Cloudy
7:53 AM 75.0 °F - 66.0 °F 73% 29.96 in 10.0 mi NNE 13.8 mph - N/A   Clear
8:53 AM 78.1 °F - 64.9 °F 64% 29.98 in 10.0 mi NE 13.8 mph - N/A   Partly Cloudy
9:53 AM 80.6 °F 82.7 °F 66.2 °F 61% 30.01 in 10.0 mi ENE 12.7 mph - N/A   Mostly Cloudy
10:53 AM 81.0 °F 83.0 °F 66.0 °F 60% 29.99 in 10.0 mi East 10.4 mph - N/A   Mostly Cloudy
11:53 AM 84.2 °F 86.6 °F 66.2 °F 55% 30.00 in 10.0 mi NE 9.2 mph - N/A   Mostly Cloudy
12:53 PM 84.9 °F 87.1 °F 66.0 °F 53% 29.97 in 10.0 mi NNE 6.9 mph - N/A   Mostly Cloudy
1:53 PM 88.0 °F 90.7 °F 66.9 °F 49% 29.95 in 10.0 mi East 6.9 mph - N/A   Mostly Cloudy
2:53 PM 88.0 °F 90.7 °F 66.9 °F 49% 29.94 in 10.0 mi ENE 8.1 mph - N/A   Mostly Cloudy
3:53 PM 87.8 °F 91.4 °F 68.0 °F 52% 29.94 in 10.0 mi East 5.8 mph - N/A   Mostly Cloudy
5:53 PM 89.6 °F 92.2 °F 66.2 °F 46% 29.90 in 10.0 mi ESE 6.9 mph - N/A   Mostly Cloudy
6:53 PM 88.0 °F 90.7 °F 66.9 °F 49% 29.86 in 10.0 mi SE 12.7 mph - N/A   Mostly Cloudy
7:53 PM 84.9 °F 87.6 °F 66.9 °F 55% 29.86 in 10.0 mi ESE 8.1 mph - N/A   Scattered Clouds
8:53 PM 84.0 °F 87.0 °F 68.0 °F 58% 29.87 in 10.0 mi SE 9.2 mph - N/A   Scattered Clouds
9:53 PM 82.9 °F 86.5 °F 69.1 °F 63% 29.88 in 10.0 mi SE 9.2 mph - N/A   Scattered Clouds
10:53 PM 82.0 °F 85.5 °F 69.1 °F 65% 29.91 in 10.0 mi SE 9.2 mph - N/A   Mostly Cloudy
11:53 PM 81.0 °F 84.1 °F 69.1 °F 67% 29.90 in 10.0 mi SE 10.4 mph - N/A   Mostly Cloudy